Monroe, MI

8:53 PM EDT on July 27, 2017 (GMT -0400)
Custer

Weather History for KTTF - March, 2014

Change the Weather History Date:

Friday, March 21, 2014

  Actual Average Record
Temperature  
Mean Temperature 30 °F -  
Max Temperature 37 °F 45 °F 75 °F (2012)
Min Temperature 24 °F 29 °F 12 °F (1986)
Degree Days  
Heating Degree Days 34    
Moisture  
Dew Point 25 °F    
Average Humidity 77    
Maximum Humidity 93    
Minimum Humidity 56    
Precipitation  
Precipitation 0.00 in - - ()
Sea Level Pressure  
Sea Level Pressure 29.97 in    
Wind  
Wind Speed 3 mph (ESE)    
Max Wind Speed 14 mph    
Max Gust Speed 20 mph    
Visibility 10 miles    
Events      
Averages and records for this station are not official NWS values.
T = Trace of Precipitation, MM = Missing Value Source: NWS Daily Summary

Daily Weather History Graph

Daily Weather History Graph

Search for Another Location

Airport or City:

Trip Planner

Search our weather history database for the weather conditions in past years. The results will help you decide how hot, cold, wet, or windy it might be!

Date:

Astronomy

Mar. 21, 2014 Rise Set
Actual Time 7:35 AM EDT 7:47 PM EDT
Civil Twilight 7:07 AM EDT 8:14 PM EDT
Nautical Twilight 6:34 AM EDT 8:47 PM EDT
Astronomical Twilight 6:01 AM EDT 9:21 PM EDT
Moon 12:08 AM EDT (3/21) 10:21 AM EDT (3/21)
Length of Visible Light 13h 07m
Length of Day
12h 11m
Waning Gibbous, 75% of the Moon is Illuminated
Mar 21
Waning Gibbous
Mar 23
Last Quarter
Mar 30
New
Apr 7
First Quarter
Apr 15
Full

Hourly Weather History & Observations

Time (EDT) Temp. Windchill Dew Point Humidity Pressure Visibility Wind Dir Wind Speed Gust Speed Precip Events Conditions
12:16 AM 28.4 °F - 26.6 °F 93% 30.05 in 10.0 mi Calm Calm - N/A   Clear
12:36 AM 30.2 °F - 24.8 °F 80% 30.05 in 10.0 mi Calm Calm - N/A   Clear
12:56 AM 26.6 °F - 24.8 °F 93% 30.05 in 10.0 mi Calm Calm - N/A   Clear
1:16 AM 28.4 °F - 24.8 °F 86% 30.05 in 10.0 mi Calm Calm - N/A   Clear
1:36 AM 28.4 °F - 23.0 °F 80% 30.05 in 10.0 mi Calm Calm - N/A   Clear
1:56 AM 28.4 °F - 23.0 °F 80% 30.05 in 10.0 mi Calm Calm - N/A   Clear
2:16 AM 28.4 °F - 23.0 °F 80% 30.05 in 10.0 mi Calm Calm - N/A   Clear
2:36 AM 28.4 °F - 21.2 °F 74% 30.05 in 10.0 mi Calm Calm - N/A   Clear
2:56 AM 26.6 °F - 23.0 °F 86% 30.05 in 10.0 mi Calm Calm - N/A   Clear
3:17 AM 28.4 °F - 24.8 °F 86% 30.04 in 10.0 mi Calm Calm - N/A   Clear
3:32 AM 28.4 °F - 24.8 °F 86% 30.04 in 10.0 mi Calm Calm - N/A   Clear
3:52 AM 28.4 °F - 24.8 °F 86% 30.04 in 10.0 mi Calm Calm - N/A   Clear
4:12 AM 28.4 °F - 23.0 °F 80% 30.04 in 10.0 mi Calm Calm - N/A   Clear
4:32 AM 26.6 °F - 21.2 °F 80% 30.04 in 10.0 mi Calm Calm - N/A   Clear
4:52 AM 26.6 °F - 24.8 °F 93% 30.05 in 10.0 mi Calm Calm - N/A   Clear
5:12 AM 26.6 °F - 24.8 °F 93% 30.04 in 10.0 mi Calm Calm - N/A   Clear
5:32 AM 24.8 °F - 23.0 °F 93% 30.05 in 10.0 mi Calm Calm - N/A   Clear
5:52 AM 24.8 °F - 23.0 °F 93% 30.05 in 7.0 mi Calm Calm - N/A   Clear
6:12 AM 24.8 °F - 23.0 °F 93% 30.05 in 7.0 mi Calm Calm - N/A   Clear
6:32 AM 24.8 °F - 21.2 °F 86% 30.04 in 7.0 mi Calm Calm - N/A   Clear
6:53 AM 24.8 °F - 23.0 °F 93% 30.04 in 7.0 mi Calm Calm - N/A   Clear
7:13 AM 24.8 °F - 23.0 °F 93% 30.04 in 7.0 mi Calm Calm - N/A   Scattered Clouds
7:33 AM 26.6 °F - 24.8 °F 93% 30.04 in 7.0 mi Calm Calm - N/A   Clear
7:53 AM 24.8 °F - 23.0 °F 93% 30.05 in 7.0 mi Calm Calm - N/A   Clear
8:13 AM 24.8 °F - 23.0 °F 93% 30.06 in 7.0 mi Calm Calm - N/A   Clear
8:33 AM 26.6 °F - 24.8 °F 93% 30.07 in 7.0 mi Calm Calm - N/A   Clear
8:53 AM 28.4 °F - 24.8 °F 86% 30.07 in 7.0 mi Calm Calm - N/A   Clear
9:13 AM 30.2 °F - 24.8 °F 80% 30.06 in 10.0 mi Calm Calm - N/A   Clear
9:33 AM 32.0 °F - 23.0 °F 69% 30.06 in 10.0 mi Calm Calm - N/A   Scattered Clouds
9:53 AM 33.8 °F - 21.2 °F 60% 30.07 in 10.0 mi Calm Calm - N/A   Scattered Clouds
10:14 AM 35.6 °F 29.9 °F 21.2 °F 56% 30.08 in 10.0 mi SE 6.9 mph - N/A   Clear
10:34 AM 35.6 °F 29.2 °F 24.8 °F 65% 30.08 in 10.0 mi SSE 8.1 mph - N/A   Clear
10:54 AM 33.8 °F - 23.0 °F 65% 30.08 in 10.0 mi Calm Calm - N/A   Clear
11:14 AM 35.6 °F - 23.0 °F 60% 30.07 in 10.0 mi Calm Calm - N/A   Clear
11:34 AM 35.6 °F 32.8 °F 21.2 °F 56% 30.06 in 10.0 mi SE 3.5 mph - N/A   Clear
11:54 AM 35.6 °F 29.9 °F 24.8 °F 65% 30.06 in 10.0 mi SSE 6.9 mph - N/A   Clear
12:14 PM 35.6 °F 28.6 °F 23.0 °F 60% 30.06 in 10.0 mi SSE 9.2 mph - N/A   Mostly Cloudy
12:34 PM 35.6 °F 32.8 °F 24.8 °F 65% 30.06 in 10.0 mi SE 3.5 mph - N/A   Scattered Clouds
12:54 PM 35.6 °F 30.7 °F 26.6 °F 70% 30.05 in 10.0 mi SE 5.8 mph - N/A   Clear
1:15 PM 37.4 °F - 28.4 °F 70% 30.04 in 10.0 mi Calm Calm - N/A   Scattered Clouds
1:35 PM 35.6 °F 29.2 °F 26.6 °F 70% 30.03 in 10.0 mi East 8.1 mph - N/A   Scattered Clouds
1:55 PM 37.4 °F 31.4 °F 24.8 °F 60% 30.03 in 10.0 mi East 8.1 mph - N/A   Scattered Clouds
2:15 PM 37.4 °F 31.4 °F 26.6 °F 65% 30.01 in 10.0 mi East 8.1 mph - N/A   Clear
2:35 PM 37.4 °F 30.8 °F 26.6 °F 65% 30.00 in 10.0 mi ESE 9.2 mph - N/A   Clear
2:55 PM 37.4 °F 32.8 °F 26.6 °F 65% 30.00 in 10.0 mi East 5.8 mph - N/A   Scattered Clouds
3:15 PM 37.4 °F 32.8 °F 26.6 °F 65% 30.00 in 10.0 mi ESE 5.8 mph - N/A   Clear
3:35 PM 37.4 °F 30.8 °F 26.6 °F 65% 29.99 in 10.0 mi SE 9.2 mph - N/A   Clear
3:55 PM 37.4 °F 30.8 °F 26.6 °F 65% 29.97 in 10.0 mi ESE 9.2 mph - N/A   Clear
4:15 PM 37.4 °F 30.3 °F 26.6 °F 65% 29.95 in 10.0 mi East 10.4 mph - N/A   Clear
4:36 PM 37.4 °F 29.3 °F 26.6 °F 65% 29.93 in 10.0 mi East 12.7 mph - N/A   Clear
4:56 PM 37.4 °F 29.8 °F 26.6 °F 65% 29.93 in 10.0 mi East 11.5 mph 16.1 mph N/A   Clear
5:16 PM 35.6 °F 28.6 °F 26.6 °F 70% 29.94 in 10.0 mi East 9.2 mph - N/A   Clear
5:36 PM 35.6 °F 28.6 °F 26.6 °F 70% 29.94 in 10.0 mi ESE 9.2 mph - N/A   Clear
5:56 PM 35.6 °F 28.6 °F 26.6 °F 70% 29.92 in 10.0 mi East 9.2 mph - N/A   Clear
6:16 PM 35.6 °F 27.1 °F 26.6 °F 70% 29.90 in 10.0 mi East 12.7 mph - N/A   Clear
6:36 PM 35.6 °F 28.6 °F 26.6 °F 70% 29.89 in 10.0 mi East 9.2 mph - N/A   Clear
6:56 PM 33.8 °F 25.8 °F 26.6 °F 75% 29.87 in 10.0 mi East 10.4 mph - N/A   Clear
7:16 PM 33.8 °F 26.4 °F 26.6 °F 75% 29.86 in 10.0 mi East 9.2 mph - N/A   Clear
7:36 PM 33.8 °F 25.3 °F 26.6 °F 75% 29.85 in 10.0 mi East 11.5 mph - N/A   Clear
7:52 PM 33.8 °F 25.3 °F 28.4 °F 81% 29.84 in 10.0 mi East 11.5 mph 17.3 mph N/A   Clear
8:12 PM 32.0 °F 23.6 °F 26.6 °F 80% 29.83 in 10.0 mi ESE 10.4 mph - N/A   Clear
8:32 PM 32.0 °F 26.4 °F 26.6 °F 80% 29.83 in 10.0 mi East 5.8 mph - N/A   Scattered Clouds
8:52 PM 32.0 °F 23.0 °F 26.6 °F 80% 29.82 in 10.0 mi ESE 11.5 mph - N/A   Clear
9:12 PM 32.0 °F 23.6 °F 26.6 °F 80% 29.81 in 10.0 mi ESE 10.4 mph - N/A   Mostly Cloudy
9:32 PM 33.8 °F 26.4 °F 26.6 °F 75% 29.80 in 10.0 mi ESE 9.2 mph - N/A   Mostly Cloudy
9:52 PM 33.8 °F 24.3 °F 26.6 °F 75% 29.77 in 10.0 mi East 13.8 mph 19.6 mph N/A   Mostly Cloudy
10:12 PM 33.8 °F 25.8 °F 26.6 °F 75% 29.75 in 10.0 mi East 10.4 mph - N/A   Mostly Cloudy
10:32 PM 33.8 °F 25.8 °F 28.4 °F 81% 29.74 in 10.0 mi East 10.4 mph - N/A   Overcast
10:53 PM 33.8 °F 26.4 °F 28.4 °F 81% 29.71 in 10.0 mi ESE 9.2 mph - N/A   Overcast
11:13 PM 33.8 °F 27.0 °F 28.4 °F 81% 29.70 in 10.0 mi East 8.1 mph - N/A   Overcast
11:33 PM 33.8 °F 27.7 °F 28.4 °F 81% 29.69 in 10.0 mi ESE 6.9 mph - N/A   Overcast
11:53 PM 33.8 °F - 30.2 °F 87% 29.68 in 10.0 mi Calm Calm - N/A   Overcast